2023/07/02 00:00:00, 0.0,20.4
2023/07/02 00:10:00, 0.0,20.3
2023/07/02 00:20:00, 0.0,20.5
2023/07/02 00:30:00, 0.0,20.4
2023/07/02 00:40:00, 0.0,20.4
2023/07/02 00:50:00, 0.0,20.0
2023/07/02 01:00:00, 0.0,20.3
2023/07/02 01:10:00, 0.0,20.3
2023/07/02 01:20:00, 0.0,20.2
2023/07/02 01:30:00, 0.0,20.4
2023/07/02 01:40:00, 0.0,20.1
2023/07/02 01:50:00, 0.0,20.2
2023/07/02 02:00:00, 0.0,20.1
2023/07/02 02:10:00, 0.0,20.2
2023/07/02 02:20:00, 0.0,20.3
2023/07/02 02:30:00, 0.0,20.4
2023/07/02 02:40:00, 0.0,20.2
2023/07/02 02:50:00, 0.0,20.0
2023/07/02 03:00:00, 0.0,20.1
2023/07/02 03:10:00, 2.9,20.1
2023/07/02 03:20:00,20.0,20.3
2023/07/02 03:30:00,23.7,19.9
2023/07/02 03:40:00,24.7,20.0
2023/07/02 03:50:00,25.1,20.1
2023/07/02 04:00:00,25.7,19.9
2023/07/02 04:10:00,26.1,19.9
2023/07/02 04:20:00,26.5,19.9
2023/07/02 04:30:00,26.8,20.0
2023/07/02 04:40:00,27.1,20.1
2023/07/02 04:50:00,27.4,19.9
2023/07/02 05:00:00,27.9,19.9
2023/07/02 05:10:00,28.3,20.0
2023/07/02 05:20:00,28.5,19.9
2023/07/02 05:30:00,28.7,20.1
2023/07/02 05:40:00,28.9,20.1
2023/07/02 05:50:00,29.0,20.4
2023/07/02 06:00:00,29.2,20.4
2023/07/02 06:10:00,29.4,20.4
2023/07/02 06:20:00,29.3,20.5
2023/07/02 06:30:00,29.3,20.8
2023/07/02 06:40:00,29.2,21.1
2023/07/02 06:50:00,29.4,21.4
2023/07/02 07:00:00,29.6,21.9
2023/07/02 07:10:00,29.7,22.4
2023/07/02 07:20:00,29.6,22.6
2023/07/02 07:30:00,29.1,22.8
2023/07/02 07:40:00,28.6,23.0
2023/07/02 07:50:00,28.9,23.3
2023/07/02 08:00:00,29.5,23.7
2023/07/02 08:10:00,29.3,24.0
2023/07/02 08:20:00,29.0,24.1
2023/07/02 08:30:00,29.4,24.8
2023/07/02 08:40:00,29.3,25.1
2023/07/02 08:50:00,29.2,25.8
2023/07/02 09:00:00,29.2,26.1
2023/07/02 09:10:00,28.0,26.8
2023/07/02 09:20:00,18.8,27.2
2023/07/02 09:30:00, 0.0,27.3
2023/07/02 09:40:00, 0.0,27.8
2023/07/02 09:50:00, 0.0,28.6
2023/07/02 10:00:00, 0.0,28.7
2023/07/02 10:10:00, 0.0,29.2
2023/07/02 10:20:00, 0.0,29.8
2023/07/02 10:30:00, 0.0,30.2
2023/07/02 10:40:00, 0.0,30.7
2023/07/02 10:50:00, 0.0,31.0
2023/07/02 11:00:00, 0.0,31.7
2023/07/02 11:10:00, 0.0,31.5
2023/07/02 11:20:00, 0.0,31.9
2023/07/02 11:30:00, 0.0,32.4
2023/07/02 11:40:00, 0.0,32.3
2023/07/02 11:50:00, 0.0,32.2
2023/07/02 12:00:00, 0.0,32.1
2023/07/02 12:10:00, 0.0,32.1
2023/07/02 12:20:00, 0.0,32.6
2023/07/02 12:30:00, 0.0,33.0
2023/07/02 12:40:00, 0.0,33.0
2023/07/02 12:50:00, 0.0,33.7
2023/07/02 13:00:00, 0.0,33.7
2023/07/02 13:10:00, 0.0,33.7
2023/07/02 13:20:00, 0.0,33.8
2023/07/02 13:30:00, 0.0,33.7
2023/07/02 13:40:00, 0.0,33.6
2023/07/02 13:50:00, 0.0,33.5
2023/07/02 14:00:00, 0.0,33.7
2023/07/02 14:10:00, 0.0,34.2
2023/07/02 14:20:00, 0.0,33.5
2023/07/02 14:30:00, 0.0,32.1
2023/07/02 14:40:00, 0.0,30.4
2023/07/02 14:50:00, 0.0,31.1
2023/07/02 15:00:00, 0.0,31.2
2023/07/02 15:10:00, 0.0,30.8
2023/07/02 15:20:00, 0.0,30.5
2023/07/02 15:30:00, 0.0,30.3
2023/07/02 15:40:00, 0.0,30.2
2023/07/02 15:50:00, 0.0,29.6
2023/07/02 16:00:00, 0.0,29.7
2023/07/02 16:10:00, 0.0,29.0
2023/07/02 16:20:00, 0.0,29.1
2023/07/02 16:30:00, 0.0,28.7
2023/07/02 16:40:00, 0.0,28.3
2023/07/02 16:50:00, 0.0,28.5
2023/07/02 17:00:00, 0.0,28.7
2023/07/02 17:10:00, 0.0,28.9
2023/07/02 17:20:00, 0.0,28.0
2023/07/02 17:30:00, 0.0,28.1
2023/07/02 17:40:00, 0.0,27.8
2023/07/02 17:50:00, 0.0,27.4
2023/07/02 18:00:00, 0.0,27.1
2023/07/02 18:10:00, 0.0,27.1
2023/07/02 18:20:00, 0.0,27.0
2023/07/02 18:30:00, 0.0,26.8
2023/07/02 18:40:00, 0.0,26.8
2023/07/02 18:50:00, 0.0,26.5
2023/07/02 19:00:00, 0.0,26.1
2023/07/02 19:10:00, 0.0,25.8
2023/07/02 19:20:00, 0.0,25.6
2023/07/02 19:30:00, 0.0,25.0
2023/07/02 19:40:00, 0.0,24.7
2023/07/02 19:50:00, 0.0,24.6
2023/07/02 20:00:00, 0.0,24.7
2023/07/02 20:10:00, 0.0,24.7
2023/07/02 20:20:00, 0.0,24.5
2023/07/02 20:30:00, 0.0,24.7
2023/07/02 20:40:00, 0.0,24.6
2023/07/02 20:50:00, 0.0,24.7
2023/07/02 21:00:00, 0.0,24.4
2023/07/02 21:10:00, 0.0,24.7
2023/07/02 21:20:00, 0.0,24.0
2023/07/02 21:30:00, 0.0,24.0
2023/07/02 21:40:00, 0.0,24.0
2023/07/02 21:50:00, 0.0,24.0
2023/07/02 22:00:00, 0.0,23.7
2023/07/02 22:10:00, 0.0,23.6
2023/07/02 22:20:00, 0.0,23.9
2023/07/02 22:30:00, 0.0,23.7
2023/07/02 22:40:00, 0.0,23.3
2023/07/02 22:50:00, 0.0,23.5
2023/07/02 23:00:00, 0.0,23.4
2023/07/02 23:10:00, 0.0,23.3
2023/07/02 23:20:00, 0.0,23.2
2023/07/02 23:30:00, 0.0,23.4
2023/07/02 23:40:00, 0.0,23.3
2023/07/02 23:50:00, 0.0,23.4
